Погода в Джорхате

Индия     26˚45′55″N   94˚12′57″E
темп.,
°C
ветер,
м/с
пор.,
м/с
влажн.,
%
обл.,
%
осадки,
мм/ч
давл.,
гПа
погр.,
м
16 января, сб
сб1623:30+16˚зюз127911 0.0 101323
02:30+15˚юз228322 0.0 101223
05:30+14˚юз128530 0.0 101223
08:30+19˚юз226487 0.0 1014352
11:30+23˚з225075 0.0 1013961
14:30+25˚с214229 0.0 10101253
17:30+20˚всв115554 0.0 101123
20:30+18˚всв126233 0.0 101323
17 января, вс
вс1723:30+16˚св126828 0.0 101326
02:30+15˚ссв117430 0.0 101423
05:30+14˚юв118261 0.0 101523
08:30+19˚св126284 0.0 1018381
11:30+24˚св344445 0.0 10161004
14:30+26˚св33380 0.0 10131143
17:30+21˚св22510 0.0 101523
20:30+18˚всв12610 0.0 101723
18 января, пн
пн1823:30+17˚в11690 0.0 101823
02:30+15˚вюв11780 0.0 101623
05:30+14˚ю00850 0.0 101723
08:30+19˚св01640 0.0 1018345
11:30+25˚св23420 0.0 1016915
14:30+26˚ссв11360 0.0 10121087
17:30+21˚св01490 0.0 101323
20:30+19˚вюв125610 0.0 101423
19 января, вт
вт1923:30+17˚юз11655 0.0 101423
02:30+16˚ююз11720 0.0 101323
05:30+15˚св227812 0.0 101438
08:30+19˚св226646 0.0 1015330
11:30+24˚св224750 0.1 10141239
14:30+24˚зсз434399 0.0 10121480
17:30+18˚юз126095 0.1 101223
20:30+17˚ююз226661 0.0 101426
20 января, ср
ср2023:30+17˚зюз246972 0.1 1014158
02:30+16˚ююв348094 0.1 1013114
05:30+16˚св237898 0.3 101399
08:30+18˚св237089 0.0 1015362
11:30+23˚сз124891 0.1 10141237
14:30+21˚ссз225297 0.4 1012683
17:30+19˚св126392 0.4 101347
20:30+17˚ссз477598 0.4 1014225